Hourly Data Report for October 08, 2016

All times are specified in Local Standard Time (LST). Add 1 hour to adjust for Daylight Saving Time where and when it is observed.

POND INLET A
NUNAVUT

72°41'22.000" N
77°58'08.000" W
61.60 m
2403206
71095
YIO

Download Data

Hourly Data (October 2016)
Hourly Data Report for October 8, 2016
Temp Definition
°C
Dew Point Temp Definition
°C
Rel Hum Definition
%
Wind Dir Definition
10's deg

Wind Spd Definition
km/h
Visibility Definition
km
Stn Press Definition
kPa
Hmdx Definition


Wind Chill Definition


Weather Definition


TIME
00:00 Legend Double Dagger -3.6 -5.3 88 17 9 16.1 101.22   -7 LegendNANA
01:00 Legend Double Dagger -2.6 -6.5 75 34 11 16.1 101.21   -7 LegendNANA
02:00 Legend Double Dagger -2.7 -6.8 73 34 8 16.1 101.20   -6 LegendNANA
03:00 Legend Double Dagger -2.8 -7.0 73 33 8 16.1 101.19   -6 LegendNANA
04:00 Legend Double Dagger -2.9 -6.9 74 34 8 16.1 101.18   -6 LegendNANA
05:00 Legend Double Dagger -2.8 -7.3 72   0 16.1 101.17     LegendNANA
06:00 Legend Double Dagger -4.0 -6.0 86 16 11 16.1 101.13   -8 LegendNANA
07:00 Legend Double Dagger -4.5 -6.0 89 19 9 16.1 101.11   -8 LegendNANA
08:00 Legend Double Dagger -4.5 -6.3 87 19 15 16.1 101.06   -10 LegendNANA
09:00 Legend Double Dagger -5.0 -7.0 86 17 13 16.1 101.01   -10 LegendNANA
10:00 Legend Double Dagger -4.7 -6.7 86 17 17 16.1 100.94   -11 LegendNANA
11:00 Legend Double Dagger -4.9 -6.2 91 17 17 16.1 100.87   -11 LegendNANA
12:00 Legend Double Dagger -5.0 -6.1 92 16 18 16.1 100.81   -11 LegendNANA
13:00 Legend Double Dagger -5.0 -6.0 93 19 15 16.1 100.75   -11 LegendNANA
14:00 Legend Double Dagger -5.2 -6.2 93 21 15 16.1 100.71   -11 LegendNANA
15:00 Legend Double Dagger -5.5 -5.9 97 17 11 4.8 100.67   -10 Fog
16:00 Legend Double Dagger -6.1 -6.6 96 17 11 16.1 100.62   -11 LegendNANA
17:00 Legend Double Dagger -6.8 -8.6 87 14 17 16.1 100.55   -13 LegendNANA
18:00 Legend Double Dagger -6.9 -8.7 87 15 15 16.1 100.51   -13 LegendNANA
19:00 Legend Double Dagger -7.1 -9.2 85 15 15 16.1 100.47   -13 LegendNANA
20:00 Legend Double Dagger -8.1 -10.3 84 14 15 16.1 100.41   -14 LegendNANA
21:00 Legend Double Dagger -9.8 -12.0 84 15 18 16.1 100.37   -17 LegendNANA
22:00 Legend Double Dagger -7.7 -10.2 82 14 15 16.1 100.30   -14 LegendNANA
23:00 Legend Double Dagger -8.4 -10.2 87 17 15 16.1 100.26   -15 LegendNANA

Notes on Data Quality.

Legend

  • E = Estimated
  • M = Missing
  • NA = Not Available
  • ‡ = Partner data that is not subject to review by the National Climate Archives
Date modified: